Location: Martin Place
(34.5365°N, 106.3306°W)
Time: 03:36:50
(UTC+00:00)

Daily predictions for brighter satellites

Satellite Brightness Start Highest point End
(mag) Time Altitude Azimuth Time Altitude Azimuth Time Altitude Azimuth
Cosmos 1464 Rocket 4.5 02:31:06 10° NNW 02:37:20 68° W 02:43:28 10° S
ERS-2 3.3 02:39:20 10° NE 02:42:20 23° E 02:45:16 10° SSE
Helios 1A Rocket 3.3 02:38:52 10° SE 02:42:42 44° ENE 02:46:33 10° N
USA 238 DEB 4.2 02:35:30 10° NNW 02:42:44 56° NE 02:50:12 10° SE
USA 238 4.2 02:35:36 10° NNW 02:42:50 56° NE 02:50:18 10° SE
Ariane Rocket 4.1 02:38:39 10° SE 02:42:53 27° ENE 02:47:07 10° NNE
SEDSat Delta rocket 3.7 02:42:01 10° SW 02:45:36 31° SSE 02:49:14 10° E
OAO 2 Rocket 3.4 02:42:23 10° W 02:47:28 84° N 02:52:28 10° E
Cosmos 1818 4.2 02:44:06 10° SW 02:49:27 63° WNW 02:54:54 10° NNE
Cosmos 1242 Rocket 4.4 02:49:31 10° NE 02:51:46 16° ENE 02:53:50 11° ESE
EPKM 3.7 02:51:08 10° SW 02:52:48 16° S 02:55:15 10° SE
USA 307 4.0 02:50:00 10° NNW 02:53:54 34° NE 02:57:40 11° ESE
Cosmos 2221 4.5 02:52:05 10° NE 02:54:06 13° ENE 02:56:07 10° ESE
MetOp-A 4.5 02:51:04 10° S 02:56:24 71° WSW 03:01:45 10° NNW
Tsikada Rocket 4.3 02:52:08 10° SSW 02:58:16 73° W 03:04:31 10° N
Hubble Space Telescope 1.9 03:01:13 10° SW 03:04:43 27° SSE 03:07:16 15° ESE
Cosmos 1697 Rocket 4.1 03:01:20 10° N 03:05:47 23° ENE 03:09:29 13° ESE
USA 186 2.8 03:03:43 10° S 03:06:55 45° W 03:09:58 10° NNW
Cosmos 1892 3.4 03:03:33 10° SSW 03:07:16 56° W 03:11:00 10° N
Cosmos 1689 Rocket 4.2 03:05:05 10° NNW 03:07:31 28° WNW 03:09:55 10° SW
Cosmos 1953 Rocket 3.5 03:03:32 10° S 03:08:00 75° E 03:12:29 10° N
Cosmos 2082 Rocket 2.9 03:03:29 10° SSE 03:08:18 30° ESE 03:13:10 10° NE
USA 305 3.3 03:06:36 10° NW 03:10:41 51° NE 03:13:42 17° ESE
USA 308 3.5 03:06:43 10° NNW 03:10:50 46° NE 03:13:51 17° ESE
Cosmos 1833 Rocket 2.6 03:06:11 10° SSW 03:11:48 75° ESE 03:17:26 10° NNE
Resurs 1-3 3.6 03:10:54 11° SSE 03:15:02 62° ENE 03:19:23 10° N
Cosmos 773 Rocket 4.4 03:10:45 10° S 03:15:34 39° ESE 03:20:23 10° NE
Cosmos 2150 Rocket 4.1 03:13:04 10° NNW 03:18:30 90° WNW 03:23:46 11° SSE
Cosmos 2298 Rocket 4.2 03:17:37 10° NNW 03:22:57 76° WSW 03:28:10 10° S
Cosmos 1125 Rocket 3.5 03:18:52 10° NNW 03:24:13 85° ENE 03:28:43 15° SSE
Cosmos 1869 3.7 03:24:44 10° NNW 03:28:33 60° W 03:32:18 10° S
Cosmos 1825 2.5 03:25:49 10° SSW 03:29:31 67° W 03:33:15 10° N
Cosmos 2058 2.8 03:25:27 10° S 03:29:33 73° E 03:33:44 10° N
Centaur D AC-29 3.6 03:00:50 10° W 03:30:32 38° SW 03:35:12 16° SSE
Landsat 7 4.2 03:28:03 21° SE 03:30:51 45° ENE 03:35:24 10° N
OBJECT-B 3.0 03:29:29 10° SSW 03:32:07 23° W 03:34:46 10° NW
Cosmos 2279 Rocket 4.0 03:26:38 10° N 03:32:47 63° E 03:37:33 17° SSE
USA 306 2.8 03:30:30 10° NW 03:34:47 86° NE 03:36:55 29° SE
Cosmos 1842 Rocket 4.3 03:30:43 10° NNE 03:34:52 36° E 03:36:31 27° ESE
COSMOS 2406 3.4 03:29:42 10° SSW 03:35:21 75° WNW 03:41:03 10° NNE
SJ-6B 4.4 03:34:02 10° SSW 03:37:21 30° W 03:40:40 10° NW
Cosmos 1076 Rocket 4.0 03:39:35 29° SE 03:41:00 38° E 03:45:02 10° NNE
OAO 1 Rocket 4.4 03:40:57 10° WSW 03:46:18 87° S 03:50:12 19° E
Cosmos 1437 Rocket 3.5 03:42:57 10° NNW 03:46:40 49° W 03:49:36 16° SSW
Atlas Centaur 2 2.3 03:44:35 10° SW 03:47:13 25° S 03:47:13 25° S
Resurs 01 Rocket 1.5 03:46:24 27° SSE 03:48:47 83° ENE 03:53:14 10° N
BREEZE M DEB (TANK) 2.3 03:46:53 10° SW 03:49:08 58° SE 03:57:14 10° ENE
Cosmos 1656 3.8 03:43:50 10° NNW 03:49:26 73° WSW 03:53:02 22° S
Cosmos 1437 2.1 03:47:39 10° N 03:50:25 89° E 03:50:30 84° SSE
Cosmos 1980 Rocket 3.3 03:47:13 10° N 03:52:01 28° ENE 03:53:52 23° E
ATLAS 2AS CENTAUR R/B 3.4 03:45:08 10° SW 03:52:59 69° WNW 04:00:48 10° NNE
Cosmos 1538 Rocket 4.3 03:53:58 31° SSE 03:55:54 45° ESE 04:00:51 10° NNE
Nadezhda 4 Rocket 3.9 03:52:26 21° SSE 03:56:32 63° E 04:02:38 10° NNE
RESURS DK-1 2.2 03:53:35 14° SSW 03:57:10 80° ESE 04:01:19 10° NNE
Cosmos 2098 Rocket 2.7 04:03:00 45° NNE 04:03:00 45° NNE 04:05:17 10° NNE
USA 245 4.4 04:00:12 35° SE 04:02:23 54° ENE 04:07:20 10° N
H-2A R/B 2.4 03:56:58 10° WSW 04:02:15 28° SSW 04:02:15 28° SSW
OAO 3 Copernicus 4.2 03:57:58 10° W 04:03:01 89° N 04:05:31 30° E
Cosmos 1633 2.3 04:03:09 62° S 04:03:41 83° E 04:07:17 10° N
SPOT 1/Viking Rocket 3.5 04:09:03 41° SSE 04:10:53 77° ENE 04:16:05 10° N
MetOp-B 4.1 04:10:08 37° SSE 04:12:23 89° WSW 04:17:46 10° NNW
USA 267 3.1 04:08:47 10° NE 04:15:21 77° SE 04:21:53 10° SW
ARIANE 5 R/B 3.2 04:16:06 41° ENE 04:16:16 41° ENE 04:20:29 10° N
ATLAS 3B R/B 3.8 04:10:37 10° NNW 04:17:01 34° NE 04:20:00 25° E
CENTAUR R/B 4.2 04:10:42 10° NW 04:18:31 40° WSW 04:25:02 16° S
Cosmos 2360 4.1 04:13:32 10° NNW 04:19:15 86° ENE 04:20:57 48° SSE
Sakura Rocket 4.3 04:14:11 10° W 04:21:51 47° SSW 04:23:06 42° SSE
SPOT 5 3.4 04:23:22 36° ENE 04:23:22 36° ENE 04:27:02 10° N
SL-16 R/B 4.2 04:21:25 10° NNE 04:24:25 14° NE 04:25:32 14° ENE
Meteor 2-8 Rocket 4.3 04:22:13 10° N 04:28:23 84° E 04:30:19 47° SSE
CARTOSAT-1 3.5 04:28:49 72° ENE 04:28:49 72° ENE 04:33:06 10° N
SEDSat Delta rocket 3.8 04:27:18 10° WSW 04:29:55 36° SW 04:29:55 36° SW
Cosmos 2221 3.6 04:27:47 10° NNW 04:31:49 40° W 04:33:03 32° SW
OAO 2 Rocket 3.1 04:27:17 10° W 04:32:16 73° SSW 04:32:23 72° S
USA 307 4.3 04:30:07 10° WNW 04:33:44 27° SW 04:33:46 27° SW
ERBS 4.4 04:36:42 10° NNW 04:38:22 23° N 04:38:22 23° N
Cosmos 923 Rocket 4.5 04:43:33 47° ENE 04:43:33 47° ENE 04:47:48 10° NNE
Terra 2.4 04:43:36 43° NE 04:43:36 43° NE 04:47:37 10° N
Cosmos 371 Rocket 3.5 04:39:25 10° N 04:43:47 56° NE 04:43:47 56° NE
Hubble Space Telescope 3.1 04:41:43 10° WSW 04:42:35 15° WSW 04:42:35 15° WSW
Cosmos 1606 4.0 04:42:51 10° NNW 04:46:13 33° W 04:46:13 33° W
Cosmos 1697 Rocket 3.5 04:44:33 10° NW 04:49:53 43° WSW 04:51:14 37° SW
Cosmos 2082 Rocket 3.9 04:47:20 10° WSW 04:52:15 31° WNW 04:57:14 10° N
Cosmos 2278 3.5 04:52:29 10° NNW 04:58:10 84° ENE 04:58:17 83° E
Cosmos 2151 4.1 05:00:21 38° W 05:00:28 38° W 05:04:26 10° N
GP-B 4.1 05:08:35 10° N 05:12:19 44° WNW 05:12:19 44° WNW
Cosmos 2360 Rocket 4.2 05:11:11 10° NNE 05:14:39 16° NE 05:14:45 16° ENE
Cosmos 1680 Rocket 4.0 05:20:47 54° NNE 05:20:47 54° NNE 05:24:49 10° NNE
ERS-1 Rocket 3.7 05:20:52 47° W 05:20:52 47° W 05:25:19 10° NNW
Cosmos 1809 Rocket 4.4 05:25:23 81° W 05:25:23 81° W 05:31:33 10° N
Cosmos 1980 Rocket 3.3 05:30:58 10° NW 05:35:38 34° W 05:35:38 34° W
Cosmos 2322 Rocket 3.0 05:38:30 10° N 05:42:47 42° NNE 05:42:47 42° NNE
ISS -0.2 05:43:23 10° NNW 05:43:31 11° NNW 05:43:31 11° NNW
ATLAS 3B R/B 3.4 06:01:00 10° NW 06:07:15 47° W 06:07:15 47° W
SL-16 R/B 3.1 06:03:26 10° NNW 06:07:23 46° NW 06:07:23 46° NW
Cosmos 2219 Rocket 4.2 06:07:52 10° NNE 06:11:15 18° NE 06:11:15 18° NE
Terra 4.4 06:22:29 13° WNW 06:22:29 13° WNW 06:23:43 10° WNW
COSMOS 2455 4.1 06:27:35 34° NE 06:27:35 34° NE 06:30:53 10° NNE
USA 234 3.5 06:28:20 62° NNE 06:28:20 62° NNE 06:34:26 10° NW
Cosmos 2333 Rocket 3.5 06:48:00 10° N 06:51:37 36° NNE 06:51:37 36° NNE
Cosmos 2360 Rocket 3.6 06:53:31 10° NNW 06:56:30 32° NW 06:56:30 32° NW
Cosmos 2297 Rocket 4.1 07:18:52 23° NE 07:18:52 23° NE 07:21:15 10° NE
NOSS 3-1 (C) 4.2 07:10:26 10° NNW 07:18:20 69° ENE 07:18:37 69° ENE
Cosmos 2237 Rocket 4.1 07:21:55 10° N 07:26:16 22° ENE 07:26:22 22° ENE
Cosmos 2227 Rocket 4.1 07:29:32 22° ENE 07:29:32 22° ENE 07:31:57 10° NE
USA 229 DEB 4.5 07:22:25 10° NNW 07:29:39 50° NE 07:30:34 48° ENE
CZ-2D R/B 4.2 07:39:50 10° NE 07:42:21 20° ENE 07:42:21 20° ENE
NOSS 3-1 (A) 4.3 07:42:22 10° NNW 07:50:15 68° ENE 07:51:22 62° E
COSMOS 2428 4.1 07:45:15 10° NNW 07:48:18 33° NNW 07:48:18 33° NNW
Cosmos 2219 Rocket 3.9 07:50:32 10° NNW 07:52:56 26° NW 07:52:56 26° NW
Cosmos 2219 4.0 08:16:32 49° NNE 08:16:32 49° NNE 08:20:39 10° NNE
Cosmos 1709 Rocket 4.5 08:22:08 54° NNW 08:22:08 54° NNW 08:27:12 10° N
Cosmos 909 Rocket 4.3 08:29:11 69° NNW 08:29:11 69° NNW 08:35:46 10° NNE
Timation 2 Rocket 4.2 08:31:10 61° NNE 08:31:10 61° NNE 08:36:05 10° NNE
Cosmos 2082 4.3 08:36:22 52° ENE 08:36:22 52° ENE 08:40:52 10° NNE
Lacrosse 5 3.1 08:37:08 39° N 08:37:08 39° N 08:40:34 10° NNE
ATLAS 5 CENTAUR R/B 2.8 08:31:04 10° NNW 08:35:47 60° NNW 08:35:47 60° NNW
Cosmos 2184 Rocket 4.2 08:44:11 64° E 08:44:11 64° E 08:50:12 10° NNE
SL-16 R/B 2.7 08:45:15 65° E 08:45:30 66° ENE 08:51:37 10° N
Resurs 1-4 Rocket 2.7 08:40:26 10° NNE 08:44:30 54° N 08:44:30 54° N
Cosmos 2297 Rocket 3.6 09:00:40 27° NW 09:00:40 27° NW 09:04:58 10° N
NPP 3.9 09:01:00 10° N 09:05:37 61° NNW 09:05:37 61° NNW
Cosmos 2074 Rocket 3.9 09:07:56 77° WNW 09:07:56 77° WNW 09:14:04 10° N
Cosmos 2237 Rocket 3.5 09:05:07 10° NW 09:08:09 29° NW 09:08:09 29° NW
Cosmos 2227 Rocket 3.4 09:11:21 30° NW 09:11:21 30° NW 09:15:53 10° N
Milstar 3 4.2 09:15:44 22° SE 09:15:44 22° SE 09:19:19 10° ESE
ADEOS Rocket 2.7 09:16:08 85° SE 09:16:17 87° ENE 09:21:49 10° NNW
CZ-2D R/B 3.0 09:19:15 10° N 09:23:40 36° WNW 09:23:40 36° WNW
Meteor 2-9 Rocket 4.0 09:25:03 84° NNW 09:25:03 84° NNW 09:30:14 10° N
ADEOS II 2.0 09:20:35 10° N 09:25:41 78° NW 09:25:41 78° NW
IRS-1D 3.4 09:24:12 10° NNE 09:29:09 81° E 09:29:09 81° E
Cosmos 1975 3.7 09:33:01 46° N 09:33:01 46° N 09:35:57 10° N
NOSS 3-3 (A) 3.7 09:32:01 67° SSE 09:32:37 74° ESE 09:38:45 10° NE
NOSS 3-3 (C) 3.7 09:32:09 67° SSE 09:32:43 73° ESE 09:38:50 10° NE
ATLAS CENTAUR R/B 2.8 09:33:49 29° E 09:33:49 29° E 09:36:26 10° NE
Iridium 4 Rocket 3.8 09:28:41 10° N 09:34:18 79° E 09:35:31 57° SSE
SL-16 R/B 2.1 09:28:54 10° NNW 09:34:35 90° W 09:35:33 63° SSE
Cosmos 2263 Rocket 2.2 09:36:12 64° SSE 09:36:59 74° ESE 09:42:40 10° NNE
Cosmos 2221 Rocket 4.4 09:35:34 10° NNW 09:38:51 42° NW 09:38:51 42° NW
Cosmos 1461 3.3 09:41:30 62° NNW 09:41:30 62° NNW 09:45:38 10° NNE
Cosmos 407 Rocket 3.3 09:41:19 76° SW 09:41:43 84° WNW 09:47:01 10° NNE
Cosmos 1707 3.6 09:41:08 10° N 09:44:48 43° E 09:45:07 42° E
Cosmos 1023 Rocket 4.3 09:46:08 71° SW 09:46:39 80° WNW 09:51:56 10° NNE
CZ-4C R/B 4.0 09:41:52 10° NNW 09:49:07 47° NE 09:57:15 10° SE
Helios 1B rocket 4.3 09:49:09 10° NNW 09:51:15 20° NW 09:51:15 20° NW
Cosmos 2341 Rocket 4.0 09:51:38 39° S 09:54:10 80° E 10:00:24 10° N
ATLAS 2A CENTAUR R/B 4.2 09:51:02 39° SW 09:54:36 61° S 10:35:03 10° ESE
Cosmos 1238 Rocket 4.3 09:57:30 21° NNW 09:57:30 21° NNW 09:58:52 10° N
Cosmos 1674 Rocket 3.5 09:51:29 10° NNW 09:55:42 69° WNW 09:55:42 69° WNW
COSMOS 2441 4.4 09:58:36 10° NNE 10:03:24 76° ESE 10:04:52 45° S
Nadezhda 3 Rocket 4.2 10:03:06 10° NNW 10:09:15 53° W 10:11:14 39° SW
Cosmos 1943 4.4 10:08:36 10° N 10:14:02 44° ENE 10:19:27 10° SE
Cosmos 1975 Rocket 4.4 10:10:05 10° N 10:14:12 38° E 10:18:14 10° SSE
IRS-P3 4.0 10:09:52 10° NNE 10:15:14 87° WNW 10:17:33 35° SSW
CBERS-1 4.5 10:10:48 10° N 10:15:39 44° WNW 10:16:47 38° WSW
IDEFIX/ARIANE 42P 2.9 10:11:03 10° N 10:16:00 46° WNW 10:17:13 39° WSW
CZ-3B R/B 4.0 10:12:02 30° SW 10:16:20 40° S 10:22:16 10° ESE
Cosmos 1340 4.0 10:13:02 10° N 10:16:33 38° E 10:20:00 10° SSE
Cosmos 1378 Rocket 3.9 10:12:49 10° NNW 10:16:54 44° W 10:16:54 44° W
Cosmos 1400 Rocket 3.7 10:16:10 25° SSE 10:18:00 43° E 10:21:42 10° NNE
Cosmos 2344 3.8 10:14:50 31° WSW 10:18:24 55° NW 10:25:48 10° NNE
Cosmos 1900 4.4 10:16:58 37° S 10:18:53 71° ESE 10:23:49 10° NNE
CZ-2C R/B 3.5 10:15:09 10° NNE 10:19:25 38° E 10:23:07 13° SSE
Lacrosse 5 4.3 10:17:52 10° NW 10:19:36 12° NNW 10:21:19 10° N
Cosmos 1908 Rocket 4.0 10:19:31 40° W 10:19:45 41° W 10:23:51 10° N
Cosmos 1626 4.3 10:17:27 10° NNE 10:20:35 25° ENE 10:23:40 10° SE
Cosmos 1356 Rocket 4.4 10:20:55 29° WNW 10:20:55 29° WNW 10:24:12 10° NNW
Cosmos 1674 3.1 10:23:15 10° N 10:27:03 61° E 10:29:59 16° SSE
SL-16 R/B 4.1 10:30:20 15° W 10:30:20 15° W 10:33:03 10° WNW
USA 215 3.2 10:24:46 10° NE 10:31:19 89° NW 10:35:19 26° SW
Meteor 1-12 Rocket 4.2 10:28:01 24° S 10:31:36 87° W 10:37:19 10° N
Centaur AC-112 4.2 10:33:52 27° SW 10:36:49 49° SSE 11:00:08 10° E
CZ-4C R/B 3.7 10:40:07 33° SW 10:41:20 43° W 10:45:20 10° NNW
ASTRO E2 2.9 10:40:23 37° SW 10:41:34 53° S 10:45:27 10° E
Cosmos 1954 Rocket 4.5 10:44:57 26° SW 10:47:35 45° WNW 10:52:42 10° N
CZ-4B R/B 3.4 10:42:57 10° N 10:47:42 59° WNW 10:50:38 22° SW
Cosmos 1025 Rocket 3.9 10:43:44 10° N 10:47:57 51° E 10:52:10 10° SSE
Cosmos 44 3.4 10:44:00 10° NNW 10:49:11 84° ENE 10:53:59 10° SSE
Cosmos 1821 Rocket 4.5 10:43:28 10° S 10:49:30 60° E 10:55:30 10° NNE
Cosmos 1844 Rocket 3.1 10:45:26 12° S 10:50:36 60° ESE 10:56:10 10° NNE
ARIANE 5 R/B 3.0 10:47:51 10° N 10:52:47 46° WNW 10:56:00 20° SW
CZ-2D R/B 3.7 10:53:00 10° N 10:56:51 47° WNW 10:59:15 21° SW
Okean 2 Rocket 3.2 10:54:50 10° S 10:59:19 81° E 11:03:51 10° N
FENGYUN 3A 3.8 10:55:44 10° NNE 11:01:11 77° ESE 11:06:34 10° S
Cosmos 1603 3.6 10:56:04 10° NNW 11:01:38 69° WSW 11:07:14 10° S
CZ-2C R/B 2.7 10:58:39 10° NNE 11:02:23 86° ESE 11:06:02 11° SSW
Cosmos 1805 3.8 11:01:49 21° SW 11:03:55 38° W 11:07:35 10° N
Spot 4 Rocket 4.1 11:00:11 10° N 11:05:16 61° WNW 11:09:58 12° SSW
Sich 1 Rocket 3.7 11:02:00 15° SSW 11:05:30 56° W 11:09:51 10° N
BREEZE M DEB (TANK) 3.5 11:00:21 13° SSW 11:06:02 40° SE 11:08:53 10° ENE
DNEPR-1 R/B 4.5 11:01:40 10° SSW 11:07:32 61° ESE 11:12:23 10° NE
MOS 1 Rocket 4.1 11:04:53 10° SSE 11:09:46 60° ENE 11:14:56 10° N
Cosmos 1867 4.3 11:05:20 10° S 11:10:34 52° ESE 11:15:52 10° NE
ATLAS CENTAUR R/B 3.2 11:09:58 11° W 11:11:57 16° NW 11:14:22 10° N
IUS-17 SRM-1 4.4 11:11:22 16° SW 11:12:30 18° SW 11:14:33 10° SSE
Cosmos 1726 2.9 11:13:48 10° S 11:17:19 53° E 11:20:54 10° NNE
Cosmos 1346 Rocket 3.3 11:14:13 10° N 11:18:05 60° E 11:21:55 10° SSE
Cosmos 2151 Rocket 3.5 11:13:55 10° S 11:18:18 79° W 11:22:42 10° N
Cosmos 2263 Rocket 4.1 11:18:30 10° W 11:21:29 14° NW 11:24:30 10° NNW
SL-14 R/B 3.2 11:17:44 10° N 11:21:37 77° W 11:25:32 10° S
ALOS 2.4 11:24:39 10° N 11:29:14 57° WNW 11:33:47 10° SSW
GEOS 3 Rocket 3.8 11:24:37 10° SSE 11:29:51 55° WSW 11:35:05 10° NW
Cosmos 1536 Rocket 3.7 11:26:15 10° N 11:30:37 80° E 11:35:00 10° S
Meteor 1-22 Rocket 4.3 11:26:21 10° SSW 11:32:11 71° W 11:37:48 10° N
Cosmos 1766 4.4 11:29:47 10° SW 11:33:05 26° WNW 11:36:24 10° NNW
Cosmos 1470 2.8 11:30:08 10° S 11:34:04 90° NE 11:37:59 10° N
Cosmos 1184 Rocket 4.4 11:31:22 10° N 11:34:22 37° E 11:37:19 10° SSE
Cosmos 1741 Rocket 4.4 11:30:35 10° SW 11:35:37 48° WNW 11:40:43 10° N
SL-08 R/B 4.5 11:31:55 10° SSW 11:35:56 25° W 11:39:59 10° NW
CZ-4C R/B 3.5 11:30:32 10° NW 11:37:47 41° WSW 11:45:39 10° S
Delta 128 4.5 11:35:15 10° WSW 11:39:32 37° S 11:44:17 10° ESE
Cosmos 1818 4.1 11:34:52 10° NNW 11:40:19 66° ENE 11:45:43 10° SE
Cosmos 1763 Rocket 3.6 11:37:26 10° NNW 11:42:41 62° WSW 11:47:51 10° S
USA 290 2.5 11:40:52 10° NNW 11:43:59 46° WSW 11:47:06 10° S
Meteor 2-10 4.1 11:40:18 10° SSW 11:45:16 59° W 11:50:25 10° N
USA 281 3.3 11:40:50 10° SSE 11:47:24 88° WSW 11:54:01 10° NNW
